GFSNE_700_spd_258.txt.gz
Wind_Speed
38 36 36 38 37 36 36 34 33 36 39 29 30 31 35 35 35 37 38 36 38 35 38 39 37 40 42 40 37 39 37 37 38 36 34 32 30 30
35 36 37 37 38 41 45 42 46 41 38 32 35 32 33 35 36 40 42 38 39 36 38 39 39 39 40 39 38 38 36 36 36 35 33 32 32 31
40 40 38 40 43 42 44 50 48 50 51 38 33 37 37 35 37 40 41 40 38 38 39 39 39 43 41 38 38 36 37 36 33 33 32 31 32 32
40 37 37 40 46 49 62 55 51 43 32 37 38 36 40 41 41 39 45 43 44 41 43 42 40 41 41 40 37 37 36 35 34 32 32 33 34 35
41 38 41 48 52 47 47 46 49 35 39 44 45 41 41 43 44 42 45 52 54 45 44 45 41 41 42 40 38 37 35 36 34 33 33 32 32 34
41 39 40 41 42 46 48 50 47 46 41 47 49 47 46 44 41 52 53 48 60 52 44 44 46 42 41 38 37 36 35 35 34 34 33 33 33 34
40 41 38 40 46 48 45 47 51 51 47 58 49 57 45 45 44 43 60 53 59 56 50 47 43 37 39 41 40 36 35 33 33 32 30 31 32 32
45 43 44 44 45 45 44 48 50 50 48 53 60 45 46 50 47 46 44 55 60 56 56 47 41 35 37 43 41 36 33 30 32 30 29 28 29 28
48 48 47 48 48 48 48 47 48 45 48 48 46 52 59 57 52 42 43 46 43 52 50 43 39 37 41 43 39 33 32 28 27 27 26 26 28 28
46 47 47 48 48 47 47 47 47 47 49 48 48 48 46 48 53 55 51 57 55 49 42 38 36 40 39 40 33 28 25 25 25 25 24 25 27 28
37 37 38 39 39 38 37 37 39 41 44 44 47 49 56 46 52 50 45 39 36 34 35 37 37 37 37 33 26 23 21 21 23 24 22 25 26 34
29 27 27 26 25 24 24 24 24 25 28 33 36 36 36 39 42 44 48 37 32 32 29 33 36 33 30 22 20 19 17 18 21 21 19 18 18 25
27 26 25 25 25 25 23 23 22 22 23 23 23 24 25 26 28 27 26 26 26 28 29 26 25 25 22 19 18 17 12 13 17 20 13 11 22 7
27 27 26 26 25 26 27 27 27 26 25 24 23 21 20 18 17 17 17 20 22 22 24 22 20 20 20 19 15 13 11 12 14 15 13 17 10 13
30 29 29 28 27 27 26 26 28 28 27 26 23 20 17 14 12 14 16 14 14 15 17 18 20 17 16 14 12 12 10 13 14 13 9 29 30 20
28 28 28 28 28 26 27 28 28 28 26 22 20 17 14 12 13 14 14 13 12 12 15 17 17 18 14 13 14 14 18 18 20 14 21 10 12 18
26 27 27 27 27 27 24 24 24 23 21 19 16 13 11 13 15 15 14 13 12 12 13 13 14 15 15 14 15 14 19 26 23 18 19 14 16 20
26 26 25 25 23 22 20 18 18 17 15 14 13 13 13 13 15 16 13 14 14 11 11 12 13 15 15 14 16 16 22 25 24 21 15 21 20 23
26 24 24 23 21 20 18 16 15 15 15 14 14 14 15 14 14 14 12 12 13 12 11 12 13 15 13 11 12 20 27 29 24 22 25 31 29 32
25 24 22 21 19 17 16 16 15 13 13 12 12 12 14 13 11 11 11 11 11 11 10 11 12 14 15 16 14 20 26 21 21 31 36 33 35 33
24 22 21 19 17 16 15 15 13 12 11 11 10 10 11 9 8 10 12 11 10 9 9 9 12 16 18 19 18 13 24 22 28 30 38 34 35 37
25 22 19 17 16 14 13 13 12 12 12 11 12 12 11 11 11 9 10 10 9 8 8 11 15 18 21 19 20 15 25 33 26 37 37 31 26 24
24 21 18 15 14 13 13 12 10 8 8 11 11 9 7 7 10 12 12 10 9 8 10 14 16 17 19 20 18 23 24 29 34 40 36 26 27 24

GFSNE_700_spd_261.txt.gz
Wind_Speed
48 50 48 45 43 41 38 37 36 41 48 45 50 38 35 37 31 37 37 31 33 34 35 33 34 36 39 39 40 40 41 39 37 36 35 37 35 34
48 48 45 43 40 40 39 38 37 42 46 48 47 49 50 45 31 32 33 32 33 34 35 33 34 36 40 40 41 40 41 40 39 39 37 37 35 34
48 48 47 42 38 39 38 39 41 40 46 48 52 44 44 29 32 33 34 34 35 32 36 32 33 38 41 42 42 42 42 38 38 39 39 38 36 34
46 49 30 23 28 35 41 49 56 52 60 40 31 31 26 25 32 40 40 36 38 36 32 41 37 39 45 45 46 44 40 40 36 39 40 38 37 34
42 43 30 30 31 30 39 37 38 44 42 43 47 49 37 34 40 47 50 42 41 35 36 36 36 40 51 49 50 48 42 39 39 39 39 38 39 37
38 37 39 39 39 41 42 43 39 44 42 36 40 44 41 43 44 46 47 55 42 38 43 37 45 45 49 50 46 46 41 38 38 38 39 36 39 38
40 39 37 39 43 46 47 45 43 45 49 49 51 49 52 50 48 38 44 46 45 47 48 44 45 49 54 52 46 43 36 37 43 43 41 38 38 38
47 51 45 44 47 46 46 47 47 49 51 52 53 47 50 50 46 48 39 43 47 46 52 52 54 59 57 56 44 41 37 39 42 42 37 38 36 37
39 38 38 41 42 40 40 41 44 46 48 51 51 51 48 44 43 44 44 49 56 56 50 59 58 58 58 54 43 39 38 39 41 38 37 39 36 35
33 32 32 31 30 29 28 28 29 31 34 37 41 44 47 49 51 41 39 41 47 55 56 54 56 44 46 39 35 38 42 36 33 33 37 35 33 35
30 31 31 30 29 28 26 23 22 22 23 25 27 30 34 40 43 44 37 41 44 48 49 38 32 31 33 36 39 39 33 28 30 32 34 30 32 33
32 31 31 29 28 27 25 23 21 21 21 22 23 23 24 23 27 32 33 30 36 36 36 30 30 32 34 32 32 33 27 25 28 30 27 29 30 30
30 29 29 28 28 28 27 26 25 25 26 26 25 24 23 21 21 21 24 26 27 25 25 25 28 27 28 29 28 24 18 23 29 23 25 23 24 29
31 31 30 29 29 28 29 28 28 27 27 26 25 23 22 20 19 18 17 19 18 20 21 24 24 25 25 23 22 18 19 23 21 18 15 14 19 28
32 31 29 29 29 29 29 29 28 27 27 26 24 21 18 17 15 14 14 14 13 16 20 22 21 21 19 21 18 15 18 16 15 13 9 6 13 7
30 30 29 28 27 27 26 28 27 26 24 22 20 18 16 14 14 12 12 13 13 13 13 14 15 15 14 15 14 18 18 12 17 10 3 13 13 7
31 30 29 28 27 26 25 24 24 22 20 17 15 14 13 12 12 13 13 14 13 13 12 11 11 10 10 12 14 16 16 14 18 11 2 7 0 17
34 31 29 28 26 25 23 22 21 19 16 14 13 12 13 12 13 15 16 14 13 12 12 10 10 8 8 12 12 16 18 20 20 15 4 4 9 15
35 32 29 27 25 23 21 20 17 17 15 14 13 13 13 14 14 13 13 14 12 12 12 11 9 8 9 10 13 17 19 23 18 16 6 16 13 30
35 31 28 25 23 21 19 17 16 16 14 13 12 10 10 12 11 11 12 12 11 11 11 10 9 9 8 11 13 17 21 22 18 17 20 25 27 30
31 30 26 22 20 19 17 15 14 14 14 12 10 9 9 8 8 10 11 11 9 8 9 9 9 9 12 14 10 14 24 23 23 20 30 27 32 36
25 26 21 18 16 16 14 13 13 13 13 12 10 9 9 7 11 9 11 12 8 7 8 9 10 12 15 15 11 10 27 30 28 27 33 23 30 35
17 17 14 13 12 11 11 12 12 11 9 6 8 7 6 7 10 12 12 10 6 6 7 9 12 14 15 15 15 11 26 29 32 34 30 25 20 22

GFSNE_700_spd_264.txt.gz
Wind_Speed
44 47 51 54 53 54 53 54 48 49 40 34 35 30 38 34 39 39 40 37 39 35 37 37 31 34 34 33 33 35 35 35 35 34 34 33 32 32
44 45 49 53 54 55 56 54 48 38 37 35 33 37 37 41 43 43 39 43 48 43 37 37 34 34 34 34 34 35 36 37 37 38 37 35 33 35
40 40 40 42 43 48 52 57 49 23 35 36 39 38 41 36 29 26 27 30 40 32 34 35 35 34 34 38 36 37 38 40 40 41 39 38 36 34
40 42 43 43 46 40 41 36 32 35 37 37 43 38 36 33 30 29 32 31 31 35 34 36 35 35 37 40 41 38 39 41 45 46 44 42 40 38
42 43 44 44 43 43 37 39 39 38 37 39 43 42 37 38 27 36 30 33 37 38 42 46 41 46 38 40 43 44 37 36 47 48 48 47 42 43
38 40 42 42 41 42 45 48 47 41 40 44 48 47 48 40 45 42 41 44 45 46 43 47 44 47 39 41 41 46 48 44 45 49 49 49 46 46
37 38 39 41 43 44 47 49 45 46 47 49 50 50 52 47 48 43 47 47 45 45 39 41 41 46 49 47 49 44 53 46 50 47 47 45 45 44
35 36 36 37 39 40 40 42 42 43 45 46 48 50 51 51 55 47 45 52 45 49 46 42 43 40 50 43 56 54 53 60 54 45 42 42 43 43
33 33 32 32 33 33 34 34 34 33 34 35 36 38 41 44 46 46 51 47 49 47 40 45 37 45 47 57 60 61 58 52 51 44 40 40 43 44
33 33 33 33 32 31 31 31 31 31 30 30 30 29 30 32 33 34 37 38 40 41 42 39 34 36 53 54 52 48 45 43 39 36 36 41 42 41
34 33 32 31 32 31 31 29 29 28 28 26 26 26 26 26 26 27 27 28 27 32 38 46 49 46 42 51 42 33 30 34 38 38 40 34 32 35
31 31 32 32 32 32 32 30 28 28 27 27 29 30 29 28 25 24 23 23 22 27 27 29 28 26 32 33 34 36 38 38 38 39 37 33 36 38
34 33 34 34 34 33 32 33 32 30 29 28 27 26 26 26 24 22 21 19 18 21 24 28 33 29 27 28 29 31 32 33 34 32 27 29 32 38
36 35 34 33 32 32 31 31 31 32 30 28 27 26 25 24 22 20 19 19 17 17 17 18 18 19 21 23 25 27 28 28 29 25 25 27 26 31
40 39 37 36 34 32 32 30 29 30 29 29 28 25 24 22 21 19 18 19 18 15 13 14 17 20 22 23 24 25 24 22 20 22 20 14 15 16
41 40 39 38 37 35 33 31 29 28 27 25 24 23 21 19 18 17 17 17 16 14 13 12 13 14 17 19 21 20 19 19 19 15 8 6 14 4
45 43 42 39 38 35 32 30 28 26 25 24 22 21 19 17 16 16 16 16 15 14 14 13 14 15 16 16 16 16 16 12 13 14 6 10 3 8
45 44 43 40 38 34 31 28 26 24 23 22 20 19 18 17 15 16 15 16 16 14 14 13 14 14 13 11 11 11 11 13 11 10 6 7 2 15
42 40 39 36 34 31 28 27 24 22 20 20 19 18 18 17 17 17 16 13 12 13 13 14 14 12 12 11 9 9 8 15 9 12 5 4 7 26
37 36 34 31 29 27 25 23 21 19 19 18 18 17 16 14 13 14 14 13 13 13 12 13 13 12 11 10 9 8 10 14 12 9 8 12 15 30
30 27 26 24 22 21 18 18 17 16 16 16 16 15 13 12 10 11 11 12 12 11 11 11 12 11 10 9 8 11 14 18 17 14 17 20 26 30
25 20 16 13 14 14 13 13 13 13 13 13 13 11 11 11 10 10 10 12 11 11 10 10 11 11 11 10 8 15 19 22 24 26 24 20 30 37
18 14 8 9 8 11 9 8 8 9 9 9 10 10 11 10 11 13 11 11 11 9 9 9 10 12 14 12 10 19 24 26 27 31 24 22 27 33

GFSNE_700_spd_270.txt.gz
Wind_Speed
43 47 46 44 43 41 40 40 42 45 43 40 38 31 29 16 17 16 21 17 20 20 24 30 35 38 38 37 38 38 43 40 39 37 38 35 35 32
50 50 45 42 40 38 37 37 38 41 44 40 38 28 25 21 23 25 24 22 24 27 30 30 28 27 36 41 43 44 39 40 44 39 38 35 36 34
50 45 41 38 35 34 34 35 35 37 39 37 37 31 27 32 29 29 26 27 27 29 29 30 29 28 32 33 36 47 46 40 48 41 46 35 38 38
46 40 36 35 34 34 32 33 34 37 39 38 35 36 34 34 36 33 31 31 35 32 34 37 36 36 35 32 35 37 43 51 45 40 45 41 39 40
43 38 36 36 36 37 36 35 34 35 38 40 38 37 36 37 36 34 33 36 40 38 40 40 40 38 37 36 38 39 34 37 38 39 42 42 44 41
39 37 38 38 36 34 34 34 34 33 34 35 35 35 35 34 36 37 35 37 39 43 42 41 42 41 43 41 41 42 44 41 41 41 42 46 43 45
38 38 38 39 39 37 35 35 35 35 35 35 36 35 35 35 36 37 39 37 36 40 41 42 45 47 49 48 47 44 46 44 45 45 51 48 51 53
36 36 38 39 38 39 39 37 36 35 34 33 33 33 32 32 33 35 35 36 35 34 38 37 40 44 51 51 53 54 53 52 52 46 54 57 52 60
36 35 36 38 37 36 37 38 37 37 37 35 33 33 31 29 29 28 30 33 33 33 35 33 32 33 37 44 50 54 54 49 53 51 46 53 57 60
37 37 37 37 38 39 37 37 37 37 37 36 34 32 31 29 28 27 27 27 28 30 32 33 33 32 32 29 34 39 45 55 53 49 51 51 58 65
36 39 40 41 40 41 40 38 36 35 36 36 36 32 32 31 30 29 28 27 27 26 28 29 29 28 28 29 27 24 27 29 34 41 30 30 39 49
41 42 42 43 42 42 43 42 40 38 38 38 37 37 35 33 32 31 31 29 28 26 25 26 26 26 26 23 21 18 18 18 22 24 25 29 35 36
45 45 45 47 48 48 48 49 48 46 42 41 39 37 35 34 33 32 32 31 29 27 25 25 24 25 26 25 23 24 25 26 26 26 27 31 36 39
51 51 51 50 50 50 51 52 53 52 50 46 41 38 36 35 34 33 31 30 29 27 26 25 25 25 25 25 25 24 26 28 28 29 31 33 36 38
50 52 52 52 51 50 48 49 50 50 50 48 44 38 36 35 33 31 30 29 28 28 26 25 24 24 24 23 22 22 23 24 25 27 30 32 34 36
48 48 47 47 47 48 46 43 43 43 43 44 41 37 34 32 30 28 27 28 27 26 25 24 23 22 20 20 19 18 20 21 21 25 26 29 31 32
45 44 43 42 41 39 38 38 38 36 35 35 34 33 30 29 27 26 25 25 24 23 22 21 20 19 18 17 17 19 18 20 21 21 22 19 20 23
40 42 41 39 37 35 33 30 29 28 24 25 26 26 26 24 23 22 22 22 21 20 19 18 18 17 16 16 16 16 16 16 16 16 16 17 18 22
39 38 36 34 32 29 26 23 21 15 15 15 16 18 19 19 19 18 18 19 18 18 19 17 17 16 15 15 14 14 13 14 15 14 14 16 18 23
35 35 33 30 26 23 19 15 13 13 13 12 11 12 14 16 17 18 18 17 17 18 18 15 15 14 13 13 12 12 12 12 11 10 10 13 13 7
34 32 31 26 22 19 18 15 15 14 13 12 11 11 13 14 15 16 16 14 13 14 14 14 13 12 12 11 10 10 11 9 7 8 7 4 6 14
29 29 26 23 22 20 18 16 14 11 11 11 11 11 12 12 12 12 12 12 11 13 13 11 10 10 10 10 9 9 9 7 5 4 4 4 10 6
28 29 26 23 21 19 17 15 14 13 13 12 12 12 11 9 9 8 9 10 9 10 10 9 8 8 9 9 8 8 9 7 5 4 5 13 14 6

GFSNE_700_spd_276.txt.gz
Wind_Speed
25 21 21 22 24 26 30 34 38 40 35 31 31 29 30 31 31 31 29 26 26 29 27 27 24 24 23 22 25 27 24 23 24 24 30 27 25 29
23 21 22 25 26 29 32 35 37 37 37 34 34 31 30 31 32 32 30 28 27 32 34 29 28 27 28 23 26 27 29 28 31 29 32 30 26 31
22 21 24 26 28 30 32 32 34 37 38 34 34 33 31 32 33 33 33 31 31 32 33 33 34 33 32 32 30 30 30 25 25 31 33 34 35 31
22 23 24 27 28 31 34 33 33 36 37 36 33 32 33 33 33 34 34 34 31 33 33 34 35 34 37 38 33 33 32 29 29 29 30 37 38 36
22 25 27 28 30 32 34 34 32 36 36 36 33 34 34 35 34 36 36 36 35 35 34 36 35 37 39 42 40 39 39 37 36 37 37 36 36 38
27 27 31 34 33 33 35 33 34 36 36 36 35 34 36 36 37 37 36 38 37 38 37 36 36 38 41 42 44 45 46 45 42 40 38 38 37 40
37 44 45 46 45 38 37 35 37 37 35 37 37 37 36 37 38 39 40 40 39 40 40 39 39 38 40 42 46 46 48 48 48 43 41 42 42 43
54 42 33 36 40 41 39 39 39 39 39 41 40 40 39 39 39 40 40 39 39 38 43 39 42 39 41 40 42 45 48 49 49 50 49 46 47 44
34 41 45 44 41 38 39 38 39 42 43 43 43 42 43 41 42 41 41 41 39 37 40 40 40 41 44 40 42 42 44 46 46 48 50 51 54 54
34 33 36 39 41 41 40 41 42 43 45 46 47 48 48 47 46 45 45 44 44 41 40 45 38 41 42 43 41 42 42 42 41 41 42 43 46 49
33 35 38 41 43 44 45 45 46 47 49 50 50 52 53 52 52 52 50 49 48 45 42 46 43 43 43 43 43 42 41 42 43 42 40 40 41 43
35 37 39 42 44 45 48 50 52 52 52 51 52 54 55 55 55 54 56 55 52 51 45 45 46 46 44 42 41 40 39 39 39 39 40 39 37 37
36 38 41 44 46 49 50 52 52 54 54 54 54 52 50 51 52 53 53 56 55 52 48 45 46 45 45 44 40 38 37 37 37 35 36 36 35 35
37 38 40 41 44 45 46 47 48 49 50 51 51 50 49 45 45 46 48 50 52 52 47 45 47 43 43 43 41 38 36 35 35 35 33 33 32 31
37 39 41 42 41 40 40 41 42 43 44 44 44 43 42 42 40 39 38 39 42 43 43 41 42 40 40 40 39 36 34 34 34 33 33 32 30 31
35 36 37 37 37 38 37 37 36 36 37 37 35 33 32 30 30 26 26 28 31 34 34 35 35 35 35 35 34 33 32 31 30 31 31 30 30 31
36 38 37 36 35 33 30 30 29 28 27 25 24 24 21 18 19 20 22 23 24 26 27 28 27 28 30 31 31 29 29 28 27 28 29 28 29 30
35 34 31 29 28 25 23 21 21 21 21 21 19 21 22 22 23 22 21 23 24 25 25 25 26 27 29 28 26 25 25 25 26 27 27 28 28 31
28 27 25 25 23 23 24 22 21 20 20 20 20 20 22 22 21 20 19 18 18 19 22 23 25 27 27 25 23 23 23 24 25 25 26 27 28 29
26 26 24 24 24 24 24 23 23 22 22 22 22 22 23 23 21 20 18 17 17 17 17 18 21 23 24 21 22 19 21 22 23 24 25 26 27 28
25 24 25 25 23 24 24 23 24 24 25 24 23 23 23 23 20 19 18 17 16 16 16 15 15 17 19 18 17 17 17 20 21 22 22 24 24 27
30 23 23 22 22 22 23 24 23 23 24 24 23 23 21 20 20 18 16 15 13 13 11 10 11 12 14 13 14 15 15 15 16 17 19 22 23 26
29 22 19 20 20 23 24 24 23 22 25 24 22 20 19 17 17 15 13 11 7 5 5 6 7 9 10 11 11 10 10 11 13 15 17 18 18 16